Weather History for Dumas, TX

Change the Weather History Date:

Saturday, November 16, 2013

  Actual Average (KBGD) Record (KBGD)
Temperature  
Mean Temperature 59 °F 48 °F  
Max Temperature 69 °F 61 °F 85 °F (1966)
Min Temperature 49 °F 36 °F 11 °F (1955)
Degree Days  
Heating Degree Days 6 17  
Month to date heating degree days 219  
Since 1 July heating degree days 440  
Cooling Degree Days 0 0  
Month to date cooling degree days 0  
Year to date cooling degree days 1835  
Growing Degree Days 9 (Base 50)    
Moisture  
Dew Point 35 °F    
Average Humidity 45    
Maximum Humidity 76    
Minimum Humidity 22    
Precipitation  
Precipitation 0.00 in 0.03 in 1.19 in (1991)
Month to date precipitation 0.51  
Year to date precipitation 20.62  
Snow  
Snow 0.00 in - 4.30 in (1980)
Month to date snowfall  
Since 1 July snowfall  
Since 1 September snowfall  
Snow Depth -    
Sea Level Pressure  
Sea Level Pressure 29.59 in    
Wind  
Wind Speed 23 mph (SW)    
Max Wind Speed 44 mph    
Max Gust Speed 58 mph    
Visibility 10 miles    
Events      
T = Trace of Precipitation, MM = Missing Value Source: NWS Daily Summary

Daily Weather History Graph

Daily Weather History Graph

Search for Another Location

Airport:

Trip Planner

Search our weather history database for the weather conditions in past years. The results will help you decide how hot, cold, wet, or windy it might be!

Date:

Astronomy

Nov. 16, 2013 Rise Set
Actual Time 7:25 AM CST 5:39 PM CST
Civil Twilight 6:58 AM CST 6:07 PM CST
Nautical Twilight 6:27 AM CST 6:38 PM CST
Astronomical Twilight 5:56 AM CST 7:08 PM CST
Moon 5:15 PM CST (11/16) 6:25 AM CST (11/16)
Length of Visible Light 11h 08m
Length of Day
10h 14m
Waxing Gibbous, 99% of the Moon is Illuminated
Nov 16
Waxing Gibbous
Nov 17
Full
Nov 25
Last Quarter
Dec 2
New
Dec 9
First Quarter

Hourly Weather History & Observations

Time (CST) Temp. Dew Point Humidity Pressure Visibility Wind Dir Wind Speed Gust Speed Precip Events Conditions
12:15 AM 55.8 °F 37.9 °F 51% 29.65 in 10.0 mi SW 18.4 mph 24.2 mph N/A   Clear
12:35 AM 55.8 °F 37.9 °F 51% 29.65 in 10.0 mi SW 18.4 mph - N/A   Clear
12:55 AM 55.8 °F 38.1 °F 52% 29.65 in 10.0 mi SW 19.6 mph - N/A   Clear
1:15 AM 54.5 °F 37.8 °F 53% 29.63 in 10.0 mi SW 13.8 mph - N/A   Clear
1:35 AM 53.1 °F 37.8 °F 56% 29.63 in 10.0 mi SW 13.8 mph - N/A   Clear
1:55 AM 52.3 °F 37.8 °F 58% 29.63 in 10.0 mi WSW 13.8 mph - N/A   Clear
2:15 AM 52.5 °F 38.3 °F 58% 29.63 in 10.0 mi WSW 15.0 mph - N/A   Clear
2:35 AM 53.2 °F 38.5 °F 57% 29.64 in 10.0 mi WSW 12.7 mph - N/A   Scattered Clouds
2:55 AM 53.8 °F 39.2 °F 58% 29.64 in 10.0 mi WSW 15.0 mph - N/A   Scattered Clouds
3:15 AM 54.5 °F 39.4 °F 57% 29.65 in 10.0 mi WSW 15.0 mph - N/A   Scattered Clouds
3:35 AM 53.8 °F 40.5 °F 61% 29.65 in 10.0 mi WSW 21.9 mph - N/A   Scattered Clouds
3:55 AM 54.3 °F 41.2 °F 61% 29.65 in 10.0 mi WSW 21.9 mph 31.1 mph N/A   Scattered Clouds
4:15 AM 54.0 °F 41.5 °F 63% 29.63 in 10.0 mi WSW 23.0 mph - N/A   Clear
4:35 AM 52.7 °F 41.0 °F 64% 29.62 in 10.0 mi WSW 19.6 mph 26.5 mph N/A   Clear
4:55 AM 51.6 °F 41.0 °F 67% 29.62 in 10.0 mi SW 18.4 mph - N/A   Clear
5:15 AM 50.9 °F 41.4 °F 70% 29.63 in 10.0 mi SW 20.7 mph - N/A   Clear
5:35 AM 50.0 °F 41.4 °F 72% 29.62 in 10.0 mi SW 18.4 mph - N/A   Clear
5:55 AM 50.0 °F 41.0 °F 71% 29.62 in 10.0 mi SW 19.6 mph - N/A   Clear
6:15 AM 50.0 °F 41.0 °F 71% 29.61 in 10.0 mi SW 21.9 mph 25.3 mph N/A   Clear
6:35 AM 50.0 °F 41.2 °F 72% 29.62 in 10.0 mi SW 20.7 mph - N/A   Clear
6:55 AM 49.1 °F 41.5 °F 75% 29.62 in 10.0 mi SW 18.4 mph - N/A   Clear
7:15 AM 49.1 °F 41.9 °F 76% 29.62 in 10.0 mi SW 19.6 mph - N/A   Clear
7:35 AM 49.5 °F 41.5 °F 74% 29.60 in 10.0 mi SW 23.0 mph - N/A   Clear
7:55 AM 50.9 °F 41.5 °F 70% 29.60 in 10.0 mi SW 23.0 mph 27.6 mph N/A   Clear
8:15 AM 52.2 °F 42.3 °F 69% 29.61 in 10.0 mi SW 24.2 mph 29.9 mph N/A   Clear
8:35 AM 54.3 °F 42.3 °F 64% 29.60 in 10.0 mi SW 28.8 mph 35.7 mph N/A   Clear
8:55 AM 56.5 °F 42.6 °F 60% 29.60 in 10.0 mi SW 29.9 mph 39.1 mph N/A   Clear
9:15 AM 58.8 °F 43.2 °F 56% 29.60 in 10.0 mi SW 29.9 mph 39.1 mph N/A   Clear
9:35 AM 60.1 °F 44.1 °F 55% 29.60 in 10.0 mi SW 32.2 mph 42.6 mph N/A   Clear
9:55 AM 60.8 °F 43.7 °F 53% 29.61 in 10.0 mi SW 28.8 mph 41.4 mph N/A   Clear
10:15 AM 62.6 °F 41.7 °F 46% 29.61 in 10.0 mi SW 36.8 mph 48.3 mph N/A   Clear
10:35 AM 62.8 °F 40.1 °F 43% 29.61 in 10.0 mi SW 36.8 mph 48.3 mph N/A   Clear
10:55 AM 63.9 °F 39.6 °F 41% 29.60 in 10.0 mi SW 36.8 mph 46.0 mph N/A   Clear
11:15 AM 65.1 °F 37.2 °F 36% 29.60 in 10.0 mi WSW 32.2 mph 42.6 mph N/A   Clear
11:35 AM 65.3 °F 35.2 °F 33% 29.59 in 7.0 mi WSW 40.3 mph 50.6 mph N/A   Scattered Clouds
11:55 AM 66.4 °F 34.3 °F 31% 29.59 in 10.0 mi SW 40.3 mph 50.6 mph N/A   Scattered Clouds
12:15 PM 66.9 °F 35.1 °F 31% 29.57 in 10.0 mi SW 41.4 mph 49.5 mph N/A   Scattered Clouds
12:35 PM 66.9 °F 32.2 °F 27% 29.57 in 7.0 mi WSW 39.1 mph 51.8 mph N/A   Scattered Clouds
12:55 PM 67.3 °F 31.5 °F 26% 29.56 in 5.0 mi WSW 40.3 mph 52.9 mph N/A   Haze
1:15 PM 68.0 °F 32.0 °F 26% 29.55 in 10.0 mi WSW 36.8 mph 48.3 mph N/A   Scattered Clouds
1:35 PM 67.6 °F 30.7 °F 25% 29.53 in 5.0 mi SW 42.6 mph 54.1 mph N/A   Haze
1:55 PM 68.0 °F 33.1 °F 27% 29.53 in 10.0 mi SW 43.7 mph 57.5 mph N/A   Scattered Clouds
2:15 PM 68.0 °F 34.3 °F 29% 29.53 in 10.0 mi WSW 41.4 mph 50.6 mph N/A   Scattered Clouds
2:35 PM 68.5 °F 30.2 °F 24% 29.51 in 10.0 mi WSW 39.1 mph 47.2 mph N/A   Scattered Clouds
2:55 PM 69.3 °F 31.3 °F 24% 29.51 in 10.0 mi SW 35.7 mph 47.2 mph N/A   Scattered Clouds
3:15 PM 68.5 °F 28.8 °F 23% 29.52 in 7.0 mi WSW 41.4 mph 52.9 mph N/A   Mostly Cloudy
3:35 PM 68.2 °F 28.6 °F 23% 29.51 in 7.0 mi SW 36.8 mph 46.0 mph N/A   Overcast
3:55 PM 67.8 °F 28.4 °F 23% 29.52 in 7.0 mi WSW 43.7 mph 51.8 mph N/A   Mostly Cloudy
4:15 PM 67.3 °F 27.0 °F 22% 29.51 in 5.0 mi WSW 40.3 mph 47.2 mph N/A   Haze
4:35 PM 66.4 °F 25.9 °F 22% 29.52 in 7.0 mi SW 38.0 mph 49.5 mph N/A   Overcast
4:55 PM 65.7 °F 26.2 °F 23% 29.52 in 10.0 mi SW 36.8 mph 49.5 mph N/A   Mostly Cloudy
5:15 PM 64.9 °F 26.8 °F 24% 29.54 in 10.0 mi WSW 31.1 mph 42.6 mph N/A   Clear
5:35 PM 63.5 °F 28.8 °F 27% 29.54 in 10.0 mi WSW 32.2 mph 43.7 mph N/A   Clear
5:55 PM 61.9 °F 29.3 °F 29% 29.54 in 10.0 mi SW 27.6 mph 38.0 mph N/A   Clear
6:15 PM 61.3 °F 29.3 °F 30% 29.55 in 10.0 mi WSW 28.8 mph 38.0 mph N/A   Clear
6:35 PM 60.8 °F 29.3 °F 30% 29.56 in 10.0 mi SW 26.5 mph 33.4 mph N/A   Clear
6:55 PM 60.8 °F 29.8 °F 31% 29.57 in 10.0 mi WSW 25.3 mph 32.2 mph N/A   Clear
7:15 PM 60.3 °F 30.2 °F 32% 29.57 in 10.0 mi WSW 25.3 mph - N/A   Clear
7:35 PM 59.2 °F 30.6 °F 34% 29.57 in 10.0 mi WSW 19.6 mph 26.5 mph N/A   Clear
7:55 PM 58.1 °F 30.9 °F 36% 29.58 in 10.0 mi WSW 18.4 mph - N/A   Clear
8:15 PM 55.6 °F 30.7 °F 39% 29.58 in 10.0 mi SW 12.7 mph - N/A   Clear
8:35 PM 54.1 °F 30.7 °F 41% 29.58 in 10.0 mi SW 16.1 mph - N/A   Clear
8:55 PM 54.0 °F 30.2 °F 40% 29.58 in 10.0 mi SSW 15.0 mph - N/A   Clear
9:15 PM 53.8 °F 29.7 °F 40% 29.58 in 10.0 mi SW 17.3 mph - N/A   Clear
9:35 PM 55.4 °F 30.2 °F 38% 29.58 in 10.0 mi SW 17.3 mph - N/A   Clear
9:55 PM 53.8 °F 30.6 °F 41% 29.58 in 10.0 mi SSW 16.1 mph - N/A   Clear
10:15 PM 54.5 °F 32.0 °F 42% 29.58 in 10.0 mi SW 17.3 mph - N/A   Clear
10:35 PM 53.8 °F 32.0 °F 44% 29.58 in 10.0 mi SW 16.1 mph - N/A   Clear
10:55 PM 53.1 °F 32.2 °F 45% 29.58 in 10.0 mi SW 18.4 mph - N/A   Clear
11:15 PM 52.7 °F 32.2 °F 46% 29.58 in 10.0 mi SW 19.6 mph - N/A   Clear
11:35 PM 52.9 °F 32.2 °F 45% 29.58 in 10.0 mi SSW 21.9 mph - N/A   Clear
11:55 PM 52.9 °F 32.2 °F 45% 29.58 in 10.0 mi SW 19.6 mph - N/A   Clear